This demonstration page uses our WeatherBlox Daily Observations layout. Learn more.

Left ArrowRight Arrow

Hourly Observations for October 14, 2022

Temp ( °F °C ) Dew Point ( °F °C ) Humidity (%) Winds ( mph kmh ) Pressure ( in mb ) Visibility ( mi km ) Precip ( " mm )
12:53 am 00:53 Clear 65 18.3 44 6.7 47 47 N 3 6 29.88 1012 10 16 0.00 0.00
1:53 am 01:53 Clear 59 15 43 6.1 55 55 Calm 29.88 1012 10 16 0.00 0.00
2:53 am 02:53 Clear 58 14.4 43 6.1 57 57 Calm 29.87 1012 10 16 0.00 0.00
3:53 am 03:53 Clear 57 13.9 41 5 55 55 Calm 29.86 1011 10 16 0.00 0.00
4:53 am 04:53 Clear 56 13.3 44 6.7 64 64 Calm 29.85 1011 10 16 0.00 0.00
5:53 am 05:53 Clear 53 11.7 40 4.4 61 61 Calm 29.85 1011 10 16 0.00 0.00
6:53 am 06:53 Clear 52 11.1 40 4.4 63 63 Calm 29.85 1011 10 16 0.00 0.00
7:53 am 07:53 Sunny 53 11.7 40 4.4 61 61 Calm 29.85 1011 10 16 0.00 0.00
8:53 am 08:53 Sunny 62 16.7 42 5.6 48 48 Calm 29.85 1011 10 16 0.00 0.00
9:53 am 09:53 Sunny 70 21.1 41 5 35 35 Calm 29.83 1010 8 13 0.00 0.00
10:53 am 10:53 Sunny 78 25.6 41 5 27 27 Calm 29.81 1009 10 16 0.00 0.00
11:53 am 11:53 Sunny 89 31.7 37 2.8 16 16 NNE 3 6 29.78 1008 10 16 0.00 0.00
12:53 pm 12:53 Sunny 94 34.4 33 0.6 12 12 Calm 29.75 1007 10 16 0.00 0.00
1:53 pm 13:53 Sunny 98 36.7 31 -0.6 9 9 VRB 7 11 29.72 1006 10 16 0.00 0.00
2:53 pm 14:53 Sunny 100 37.8 29 -1.7 8 8 NNW 5 7 29.69 1005 10 16 0.00 0.00
3:53 pm 15:53 Sunny 100 37.8 28 -2.2 8 8 VRB 3 6 29.67 1005 10 16 0.00 0.00
4:53 pm 16:53 Sunny 100 37.8 27 -2.8 8 8 WNW 6 9 29.66 1004 10 16 0.00 0.00
5:53 pm 17:53 Sunny 97 36.1 29 -1.7 9 9 SE 3 6 29.65 1004 10 16 0.00 0.00
6:53 pm 18:53 Clear 84 28.9 32 0 15 15 SW 3 6 29.66 1004 10 16 0.00 0.00
7:53 pm 19:53 Clear 78 25.6 35 1.7 21 21 N 5 7 29.67 1005 10 16 0.00 0.00
8:53 pm 20:53 Clear 75 23.9 33 0.6 22 22 Calm 29.69 1005 10 16 0.00 0.00
9:53 pm 21:53 Clear 78 25.6 42 5.6 28 28 S 9 15 29.71 1006 10 16 0.00 0.00
10:53 pm 22:53 Clear 71 21.7 42 5.6 35 35 WNW 5 7 29.73 1007 10 16 0.00 0.00
11:53 pm 23:53 Clear 66 18.9 41 5 40 40 Calm 29.75 1007 10 16 0.00 0.00

Powered by AerisWeather